Accueil
METAR-TAF:

METAR-TAF

Aéroports :

Tri-City Airport

Parsons, Kansas, États-Unis

latitude: 37-19-40N, longitude: 095-30-15W, altitude: 274 m

Observation

Le bulletin a été fait il y a 30 minutes, à 18:52 UTC
Vent 8 kt de ouest/sud-ouest
Température 35°C
Humidité 44%
Pression 1016 hPa
Visibilité: 16.1 km
Ciel clair

METAR: KPPF 151852Z AUTO 25008KT 10SM CLR 35/21 A3001 RMK AO2 SLP149 T03500211

Heure: 14:22 (19:22 UTC)


TAF: absent

Observations et prévisions météorologiques de plus de 4000 aéroports (messages METAR et TAF).

Les stations disponibles sont représentées par des disques jaunes et rouges sur la carte.

Passer la souris dessus pour voir le nom de la station.

Cliquer dessus pour voir les observations et prévisions météorologiques.

Pour changer de carte: cliquez sur les boutons verts avec une croix noire pour zoomer, sur le bouton vert avec un tiret pour effectuer un zoom arrière, ou sur les flèches vertes pour les cartes adjacentes.


METAR-TAF: